Location: Laporte
(40.6264°N, 105.1378°W)
Time: 11:50:15
(UTC+00:00)

N. Korean satellite - Visible Passes

Search period start: 12 August 2022 00:00
Search period end: 22 August 2022 00:00
Orbit: 433 x 470 km, 97.3° (Epoch: 11 August)

Date Brightness Start Highest point End Pass type
(mag) Time Alt. Az. Time Alt. Az. Time Alt. Az.
14 Aug 9.5 11:23:24 10° NE 11:25:42 16° E 11:28:00 10° SE visible
17 Aug 9.7 11:13:25 10° ENE 11:14:50 12° E 11:16:16 10° ESE visible
19 Aug 9.1 11:35:44 10° NE 11:38:37 23° E 11:41:28 10° SSE visible
